Time,TemperatureF,DewpointF,PressureIn,WindDirection,WindDirectionDegrees,WindSpeedMPH,WindSpeedGustMPH,Humidity,HourlyPrecipIn,Conditions,Clouds,dailyrainin,SoftwareType,DateUTC
2013-07-12 00:01:00,63.1,49.0,29.91,WSW,244,5.0,16.0,60,0.00,,,0.00,Weather View 32 v70,2013-07-12 07:01:00,
2013-07-12 00:06:00,62.9,48.8,29.91,West,271,7.0,16.0,60,0.00,,,0.00,Weather View 32 v70,2013-07-12 07:06:00,
2013-07-12 00:11:00,62.7,49.0,29.91,WSW,244,7.0,15.0,61,0.00,,,0.00,Weather View 32 v70,2013-07-12 07:11:00,
2013-07-12 00:16:00,62.6,48.9,29.91,NW,312,2.0,15.0,61,0.00,,,0.00,Weather View 32 v70,2013-07-12 07:16:00,
2013-07-12 00:21:00,62.4,48.7,29.91,WSW,242,8.0,15.0,61,0.00,,,0.00,Weather View 32 v70,2013-07-12 07:21:00,
2013-07-12 00:26:00,62.3,48.6,29.91,WSW,250,8.0,15.0,61,0.00,,,0.00,Weather View 32 v70,2013-07-12 07:26:00,
2013-07-12 00:31:00,62.1,48.5,29.91,WSW,258,9.0,15.0,61,0.00,,,0.00,Weather View 32 v70,2013-07-12 07:31:00,
2013-07-12 00:36:00,62.1,48.5,29.91,WNW,286,4.0,15.0,61,0.00,,,0.00,Weather View 32 v70,2013-07-12 07:36:00,
2013-07-12 00:41:00,62.3,48.6,29.91,North,0,2.0,15.0,61,0.00,,,0.00,Weather View 32 v70,2013-07-12 07:41:00,
2013-07-12 00:46:00,62.1,48.5,29.91,West,275,10.0,15.0,61,0.00,,,0.00,Weather View 32 v70,2013-07-12 07:46:00,
2013-07-12 00:51:00,62.0,48.4,29.91,WSW,246,2.0,18.0,61,0.00,,,0.00,Weather View 32 v70,2013-07-12 07:51:00,
2013-07-12 00:56:00,62.0,48.4,29.91,WNW,290,3.0,18.0,61,0.00,,,0.00,Weather View 32 v70,2013-07-12 07:56:00,
2013-07-12 01:01:00,61.8,48.2,29.91,West,281,3.0,18.0,61,0.00,,,0.00,Weather View 32 v70,2013-07-12 08:01:00,
2013-07-12 01:06:00,61.6,48.4,29.91,West,272,5.0,18.0,62,0.00,,,0.00,Weather View 32 v70,2013-07-12 08:06:00,
2013-07-12 01:11:00,61.5,48.3,29.91,WNW,293,2.0,18.0,62,0.00,,,0.00,Weather View 32 v70,2013-07-12 08:11:00,
2013-07-12 01:16:00,61.3,48.1,29.91,West,273,6.0,18.0,62,0.00,,,0.00,Weather View 32 v70,2013-07-12 08:16:00,
2013-07-12 01:21:00,61.2,48.0,29.91,WNW,288,4.0,18.0,62,0.00,,,0.00,Weather View 32 v70,2013-07-12 08:21:00,
2013-07-12 01:26:00,61.2,48.0,29.92,West,265,5.0,18.0,62,0.00,,,0.00,Weather View 32 v70,2013-07-12 08:26:00,
2013-07-12 01:31:00,61.0,47.9,29.92,WSW,242,3.0,18.0,62,0.00,,,0.00,Weather View 32 v70,2013-07-12 08:31:00,
2013-07-12 01:36:00,60.9,47.8,29.92,West,264,9.0,18.0,62,0.00,,,0.00,Weather View 32 v70,2013-07-12 08:36:00,
2013-07-12 01:41:00,60.7,48.0,29.92,West,269,11.0,18.0,63,0.00,,,0.00,Weather View 32 v70,2013-07-12 08:41:00,
2013-07-12 01:46:00,60.5,47.8,29.92,West,280,7.0,18.0,63,0.00,,,0.00,Weather View 32 v70,2013-07-12 08:46:00,
2013-07-12 01:51:00,60.5,47.8,29.92,West,275,5.0,18.0,63,0.00,,,0.00,Weather View 32 v70,2013-07-12 08:51:00,
2013-07-12 01:56:00,60.4,47.7,29.92,West,267,1.0,16.0,63,0.00,,,0.00,Weather View 32 v70,2013-07-12 08:56:00,
2013-07-12 02:01:00,60.4,47.7,29.92,WSW,246,10.0,16.0,63,0.00,,,0.00,Weather View 32 v70,2013-07-12 09:01:00,
2013-07-12 02:06:00,60.4,47.7,29.92,West,267,6.0,18.0,63,0.00,,,0.00,Weather View 32 v70,2013-07-12 09:06:00,
2013-07-12 02:11:00,60.2,47.5,29.92,West,265,3.0,18.0,63,0.00,,,0.00,Weather View 32 v70,2013-07-12 09:11:00,
2013-07-12 02:16:00,60.1,47.4,29.92,West,268,4.0,18.0,63,0.00,,,0.00,Weather View 32 v70,2013-07-12 09:16:00,
2013-07-12 02:21:00,60.1,47.9,29.92,West,265,3.0,20.0,64,0.00,,,0.00,Weather View 32 v70,2013-07-12 09:21:00,
2013-07-12 02:26:00,59.9,47.2,29.92,West,277,9.0,20.0,63,0.00,,,0.00,Weather View 32 v70,2013-07-12 09:26:00,
2013-07-12 02:31:00,59.9,47.7,29.92,West,273,5.0,20.0,64,0.00,,,0.00,Weather View 32 v70,2013-07-12 09:31:00,
2013-07-12 02:36:00,59.8,47.6,29.92,West,279,6.0,20.0,64,0.00,,,0.00,Weather View 32 v70,2013-07-12 09:36:00,
2013-07-12 02:41:00,59.8,47.6,29.92,West,270,5.0,20.0,64,0.00,,,0.00,Weather View 32 v70,2013-07-12 09:41:00,
2013-07-12 02:46:00,59.6,47.4,29.92,West,267,4.0,20.0,64,0.00,,,0.00,Weather View 32 v70,2013-07-12 09:46:00,
2013-07-12 02:51:00,59.5,47.3,29.92,West,260,6.0,20.0,64,0.00,,,0.00,Weather View 32 v70,2013-07-12 09:51:00,
2013-07-12 02:56:00,59.3,47.1,29.92,West,263,2.0,22.0,64,0.00,,,0.00,Weather View 32 v70,2013-07-12 09:56:00,
2013-07-12 03:01:00,59.2,47.4,29.92,West,267,4.0,22.0,65,0.00,,,0.00,Weather View 32 v70,2013-07-12 10:01:00,
2013-07-12 03:06:00,59.2,47.4,29.92,NW,305,7.0,22.0,65,0.00,,,0.00,Weather View 32 v70,2013-07-12 10:06:00,
2013-07-12 03:11:00,59.0,47.2,29.92,West,259,12.0,22.0,65,0.00,,,0.00,Weather View 32 v70,2013-07-12 10:11:00,
2013-07-12 03:16:00,58.9,47.1,29.92,SW,230,9.0,24.0,65,0.00,,,0.00,Weather View 32 v70,2013-07-12 10:16:00,
2013-07-12 03:21:00,58.9,47.1,29.92,West,263,3.0,24.0,65,0.00,,,0.00,Weather View 32 v70,2013-07-12 10:21:00,
2013-07-12 03:26:00,58.7,46.9,29.92,West,261,9.0,24.0,65,0.00,,,0.00,Weather View 32 v70,2013-07-12 10:26:00,
2013-07-12 03:31:00,58.6,46.8,29.93,West,277,12.0,24.0,65,0.00,,,0.00,Weather View 32 v70,2013-07-12 10:31:00,
2013-07-12 03:36:00,58.6,46.8,29.93,WNW,296,8.0,24.0,65,0.00,,,0.00,Weather View 32 v70,2013-07-12 10:36:00,
2013-07-12 03:41:00,58.6,46.8,29.93,WSW,241,2.0,24.0,65,0.00,,,0.00,Weather View 32 v70,2013-07-12 10:41:00,
2013-07-12 03:46:00,58.4,47.1,29.93,West,265,10.0,24.0,66,0.00,,,0.00,Weather View 32 v70,2013-07-12 10:46:00,
2013-07-12 03:51:00,58.4,47.1,29.93,WNW,290,1.0,24.0,66,0.00,,,0.00,Weather View 32 v70,2013-07-12 10:51:00,
2013-07-12 03:56:00,58.1,47.2,29.93,West,276,6.0,24.0,67,0.00,,,0.00,Weather View 32 v70,2013-07-12 10:56:00,
2013-07-12 04:01:00,57.8,47.3,29.93,West,271,3.0,24.0,68,0.00,,,0.00,Weather View 32 v70,2013-07-12 11:01:00,
2013-07-12 04:06:00,57.6,47.1,29.93,SSW,193,7.0,24.0,68,0.00,,,0.00,Weather View 32 v70,2013-07-12 11:06:00,
2013-07-12 04:11:00,57.5,47.0,29.93,WNW,292,7.0,24.0,68,0.00,,,0.00,Weather View 32 v70,2013-07-12 11:11:00,
2013-07-12 04:16:00,57.5,47.0,29.93,West,259,2.0,24.0,68,0.00,,,0.00,Weather View 32 v70,2013-07-12 11:16:00,
2013-07-12 04:21:00,57.5,47.0,29.94,SW,226,2.0,22.0,68,0.00,,,0.00,Weather View 32 v70,2013-07-12 11:21:00,
2013-07-12 04:26:00,57.3,47.2,29.94,West,273,1.0,22.0,69,0.00,,,0.00,Weather View 32 v70,2013-07-12 11:26:00,
2013-07-12 04:31:00,57.2,47.1,29.94,West,276,3.0,22.0,69,0.00,,,0.00,Weather View 32 v70,2013-07-12 11:31:00,
2013-07-12 04:36:00,57.2,47.1,29.94,SW,235,1.0,22.0,69,0.00,,,0.00,Weather View 32 v70,2013-07-12 11:36:00,
2013-07-12 04:41:00,57.2,47.1,29.95,NW,312,1.0,22.0,69,0.00,,,0.00,Weather View 32 v70,2013-07-12 11:41:00,
2013-07-12 04:46:00,57.0,46.9,29.95,West,271,7.0,22.0,69,0.00,,,0.00,Weather View 32 v70,2013-07-12 11:46:00,
2013-07-12 04:51:00,56.9,47.2,29.95,WNW,300,6.0,22.0,70,0.00,,,0.00,Weather View 32 v70,2013-07-12 11:51:00,
2013-07-12 04:56:00,56.7,47.0,29.95,NW,323,6.0,22.0,70,0.00,,,0.00,Weather View 32 v70,2013-07-12 11:56:00,
2013-07-12 05:01:00,56.6,47.3,29.95,NW,311,4.0,19.0,71,0.00,,,0.00,Weather View 32 v70,2013-07-12 12:01:00,
2013-07-12 05:06:00,56.5,47.2,29.94,NW,309,3.0,19.0,71,0.00,,,0.00,Weather View 32 v70,2013-07-12 12:06:00,
2013-07-12 05:11:00,56.5,47.2,29.95,West,277,8.0,19.0,71,0.00,,,0.00,Weather View 32 v70,2013-07-12 12:11:00,
2013-07-12 05:15:00,56.5,47.2,29.95,West,263,4.0,19.0,71,0.00,,,0.00,Weather View 32 v70,2013-07-12 12:15:00,
2013-07-12 05:20:00,56.3,47.0,29.95,WNW,287,12.0,19.0,71,0.00,,,0.00,Weather View 32 v70,2013-07-12 12:20:00,
2013-07-12 05:25:00,56.3,47.4,29.94,WNW,290,10.0,19.0,72,0.00,,,0.00,Weather View 32 v70,2013-07-12 12:25:00,
2013-07-12 05:30:00,56.3,47.4,29.95,WNW,301,5.0,19.0,72,0.00,,,0.00,Weather View 32 v70,2013-07-12 12:30:00,
2013-07-12 05:35:00,56.3,47.0,29.95,West,259,7.0,19.0,71,0.00,,,0.00,Weather View 32 v70,2013-07-12 12:35:00,
2013-07-12 05:40:00,56.5,47.2,29.95,West,269,9.0,19.0,71,0.00,,,0.00,Weather View 32 v70,2013-07-12 12:40:00,
2013-07-12 05:45:00,56.5,47.2,29.95,West,279,4.0,19.0,71,0.00,,,0.00,Weather View 32 v70,2013-07-12 12:45:00,
2013-07-12 05:50:00,56.6,46.9,29.95,West,259,3.0,19.0,70,0.00,,,0.00,Weather View 32 v70,2013-07-12 12:50:00,
2013-07-12 05:55:00,56.9,47.2,29.95,West,267,4.0,19.0,70,0.00,,,0.00,Weather View 32 v70,2013-07-12 12:55:00,
2013-07-12 06:00:00,56.7,47.0,29.95,West,276,1.0,16.0,70,0.00,,,0.00,Weather View 32 v70,2013-07-12 13:00:00,
2013-07-12 06:05:00,56.7,47.0,29.95,West,267,4.0,16.0,70,0.00,,,0.00,Weather View 32 v70,2013-07-12 13:05:00,
2013-07-12 06:10:00,56.7,47.0,29.95,WSW,257,3.0,16.0,70,0.00,,,0.00,Weather View 32 v70,2013-07-12 13:10:00,
2013-07-12 06:11:00,56.7,47.0,29.95,West,259,2.0,16.0,70,0.00,,,0.00,Weather View 32 v70,2013-07-12 13:11:00,
2013-07-12 06:16:00,56.9,47.2,29.95,WSW,258,2.0,16.0,70,0.00,,,0.00,Weather View 32 v70,2013-07-12 13:16:00,
2013-07-12 06:21:00,56.7,47.0,29.95,West,281,2.0,16.0,70,0.00,,,0.00,Weather View 32 v70,2013-07-12 13:21:00,
2013-07-12 06:26:00,56.6,46.9,29.95,West,259,7.0,16.0,70,0.00,,,0.00,Weather View 32 v70,2013-07-12 13:26:00,
2013-07-12 06:31:00,56.7,47.0,29.95,West,268,1.0,16.0,70,0.00,,,0.00,Weather View 32 v70,2013-07-12 13:31:00,
2013-07-12 06:36:00,56.9,47.2,29.95,WSW,256,2.0,16.0,70,0.00,,,0.00,Weather View 32 v70,2013-07-12 13:36:00,
2013-07-12 06:41:00,56.9,47.2,29.95,West,267,2.0,16.0,70,0.00,,,0.00,Weather View 32 v70,2013-07-12 13:41:00,
2013-07-12 06:46:00,57.0,46.9,29.95,West,273,3.0,16.0,69,0.00,,,0.00,Weather View 32 v70,2013-07-12 13:46:00,
2013-07-12 06:51:00,57.0,46.9,29.95,WNW,298,2.0,16.0,69,0.00,,,0.00,Weather View 32 v70,2013-07-12 13:51:00,
2013-07-12 06:56:00,57.2,47.1,29.95,WNW,292,9.0,13.0,69,0.00,,,0.00,Weather View 32 v70,2013-07-12 13:56:00,
2013-07-12 07:01:00,57.3,47.2,29.95,West,263,2.0,13.0,69,0.00,,,0.00,Weather View 32 v70,2013-07-12 14:01:00,
2013-07-12 07:06:00,57.6,47.1,29.95,WSW,238,8.0,14.0,68,0.00,,,0.00,Weather View 32 v70,2013-07-12 14:06:00,
2013-07-12 07:11:00,57.8,47.3,29.95,West,261,8.0,14.0,68,0.00,,,0.00,Weather View 32 v70,2013-07-12 14:11:00,
2013-07-12 07:16:00,58.0,47.5,29.95,WSW,248,6.0,14.0,68,0.00,,,0.00,Weather View 32 v70,2013-07-12 14:16:00,
2013-07-12 07:21:00,58.1,47.6,29.95,WNW,286,7.0,14.0,68,0.00,,,0.00,Weather View 32 v70,2013-07-12 14:21:00,
2013-07-12 07:26:00,58.3,47.8,29.95,NW,304,8.0,14.0,68,0.00,,,0.00,Weather View 32 v70,2013-07-12 14:26:00,
2013-07-12 07:31:00,58.4,47.5,29.95,WNW,300,3.0,14.0,67,0.00,,,0.00,Weather View 32 v70,2013-07-12 14:31:00,
2013-07-12 07:36:00,58.7,47.3,29.95,West,270,4.0,14.0,66,0.00,,,0.00,Weather View 32 v70,2013-07-12 14:36:00,
2013-07-12 07:41:00,59.0,47.6,29.95,West,259,3.0,14.0,66,0.00,,,0.00,Weather View 32 v70,2013-07-12 14:41:00,
2013-07-12 07:46:00,59.2,47.8,29.95,WNW,283,3.0,14.0,66,0.00,,,0.00,Weather View 32 v70,2013-07-12 14:46:00,
2013-07-12 07:51:00,59.3,47.5,29.94,WNW,300,6.0,14.0,65,0.00,,,0.00,Weather View 32 v70,2013-07-12 14:51:00,
2013-07-12 07:56:00,59.5,48.1,29.94,WNW,284,1.0,14.0,66,0.00,,,0.00,Weather View 32 v70,2013-07-12 14:56:00,
2013-07-12 08:01:00,59.6,47.8,29.94,NW,317,3.0,14.0,65,0.00,,,0.00,Weather View 32 v70,2013-07-12 15:01:00,
2013-07-12 08:06:00,59.6,47.8,29.94,West,260,9.0,13.0,65,0.00,,,0.00,Weather View 32 v70,2013-07-12 15:06:00,
2013-07-12 08:11:00,59.9,47.7,29.94,West,263,2.0,13.0,64,0.00,,,0.00,Weather View 32 v70,2013-07-12 15:11:00,
2013-07-12 08:16:00,60.1,47.9,29.94,West,266,5.0,18.0,64,0.00,,,0.00,Weather View 32 v70,2013-07-12 15:16:00,
2013-07-12 08:21:00,60.2,48.4,29.94,West,277,4.0,18.0,65,0.00,,,0.00,Weather View 32 v70,2013-07-12 15:21:00,
2013-07-12 08:26:00,60.2,47.9,29.94,WSW,254,11.0,18.0,64,0.00,,,0.00,Weather View 32 v70,2013-07-12 15:26:00,
2013-07-12 08:31:00,60.2,47.9,29.94,WNW,300,7.0,18.0,64,0.00,,,0.00,Weather View 32 v70,2013-07-12 15:31:00,
2013-07-12 08:36:00,60.4,48.1,29.95,WNW,290,16.0,18.0,64,0.00,,,0.00,Weather View 32 v70,2013-07-12 15:36:00,
2013-07-12 08:41:00,60.9,48.2,29.94,West,265,4.0,18.0,63,0.00,,,0.00,Weather View 32 v70,2013-07-12 15:41:00,
2013-07-12 08:46:00,61.3,48.6,29.94,NW,318,7.0,18.0,63,0.00,,,0.00,Weather View 32 v70,2013-07-12 15:46:00,
2013-07-12 08:51:00,61.3,48.6,29.95,NNW,329,10.0,18.0,63,0.00,,,0.00,Weather View 32 v70,2013-07-12 15:51:00,
2013-07-12 08:56:00,61.5,48.8,29.94,NW,311,7.0,18.0,63,0.00,,,0.00,Weather View 32 v70,2013-07-12 15:56:00,
2013-07-12 09:01:00,61.8,48.6,29.94,NW,319,10.0,18.0,62,0.00,,,0.00,Weather View 32 v70,2013-07-12 16:01:00,
2013-07-12 09:06:00,62.0,48.4,29.95,NW,323,5.0,18.0,61,0.00,,,0.00,Weather View 32 v70,2013-07-12 16:06:00,
2013-07-12 09:11:00,62.6,48.5,29.94,NW,306,11.0,18.0,60,0.00,,,0.00,Weather View 32 v70,2013-07-12 16:11:00,
2013-07-12 09:16:00,62.6,48.9,29.94,WNW,296,6.0,17.0,61,0.00,,,0.00,Weather View 32 v70,2013-07-12 16:16:00,
2013-07-12 09:21:00,62.4,48.7,29.94,WNW,296,5.0,17.0,61,0.00,,,0.00,Weather View 32 v70,2013-07-12 16:21:00,
2013-07-12 09:26:00,62.7,48.6,29.94,NNW,334,3.0,17.0,60,0.00,,,0.00,Weather View 32 v70,2013-07-12 16:26:00,
2013-07-12 09:31:00,63.2,48.6,29.93,NW,316,4.0,17.0,59,0.00,,,0.00,Weather View 32 v70,2013-07-12 16:31:00,
2013-07-12 09:36:00,63.4,48.8,29.93,WNW,298,4.0,16.0,59,0.00,,,0.00,Weather View 32 v70,2013-07-12 16:36:00,
2013-07-12 09:41:00,63.9,48.8,29.93,WNW,302,2.0,16.0,58,0.00,,,0.00,Weather View 32 v70,2013-07-12 16:41:00,
2013-07-12 09:46:00,64.7,49.1,29.92,NW,321,8.0,16.0,57,0.00,,,0.00,Weather View 32 v70,2013-07-12 16:46:00,
2013-07-12 09:51:00,65.2,49.1,29.92,WNW,298,5.0,16.0,56,0.00,,,0.00,Weather View 32 v70,2013-07-12 16:51:00,
2013-07-12 09:56:00,65.0,47.9,29.92,WNW,290,10.0,16.0,54,0.00,,,0.00,Weather View 32 v70,2013-07-12 16:56:00,
2013-07-12 10:01:00,65.5,48.9,29.92,WNW,302,4.0,16.0,55,0.00,,,0.00,Weather View 32 v70,2013-07-12 17:01:00,
2013-07-12 10:06:00,64.8,47.7,29.92,West,277,6.0,16.0,54,0.00,,,0.00,Weather View 32 v70,2013-07-12 17:06:00,
2013-07-12 10:12:00,64.5,47.4,29.93,WNW,298,3.0,16.0,54,0.00,,,0.00,Weather View 32 v70,2013-07-12 17:12:00,
2013-07-12 10:17:00,64.8,47.7,29.93,NW,317,6.0,16.0,54,0.00,,,0.00,Weather View 32 v70,2013-07-12 17:17:00,
2013-07-12 10:22:00,65.2,48.1,29.92,WNW,296,1.0,16.0,54,0.00,,,0.00,Weather View 32 v70,2013-07-12 17:22:00,
2013-07-12 10:28:00,65.6,48.5,29.92,WNW,285,1.0,16.0,54,0.00,,,0.00,Weather View 32 v70,2013-07-12 17:28:00,
2013-07-12 10:33:00,66.0,48.3,29.92,WSW,257,7.0,16.0,53,0.00,,,0.00,Weather View 32 v70,2013-07-12 17:33:00,
2013-07-12 10:38:00,65.8,48.1,29.92,West,267,7.0,17.0,53,0.00,,,0.00,Weather View 32 v70,2013-07-12 17:38:00,
2013-07-12 10:43:00,66.0,48.8,29.92,NW,307,8.0,18.0,54,0.00,,,0.00,Weather View 32 v70,2013-07-12 17:43:00,
2013-07-12 10:48:00,66.4,48.7,29.92,NW,307,6.0,18.0,53,0.00,,,0.00,Weather View 32 v70,2013-07-12 17:48:00,
2013-07-12 10:53:00,66.9,49.2,29.92,WNW,298,3.0,18.0,53,0.00,,,0.00,Weather View 32 v70,2013-07-12 17:53:00,
2013-07-12 10:58:00,67.3,49.0,29.92,NW,304,4.0,19.0,52,0.00,,,0.00,Weather View 32 v70,2013-07-12 17:58:00,
2013-07-12 11:03:00,67.3,49.5,29.92,West,271,1.0,19.0,53,0.00,,,0.00,Weather View 32 v70,2013-07-12 18:03:00,
2013-07-12 11:09:00,67.8,48.4,29.92,WNW,286,7.0,19.0,50,0.00,,,0.00,Weather View 32 v70,2013-07-12 18:09:00,
2013-07-12 11:14:00,68.1,49.8,29.92,West,281,2.0,19.0,52,0.00,,,0.00,Weather View 32 v70,2013-07-12 18:14:00,
2013-07-12 11:19:00,67.9,46.9,29.92,NNW,329,4.0,21.0,47,0.00,,,0.00,Weather View 32 v70,2013-07-12 18:19:00,
2013-07-12 11:24:00,67.6,47.7,29.92,WNW,295,6.0,22.0,49,0.00,,,0.00,Weather View 32 v70,2013-07-12 18:24:00,
2013-07-12 11:30:00,67.1,47.2,29.93,West,281,9.0,22.0,49,0.00,,,0.00,Weather View 32 v70,2013-07-12 18:30:00,
2013-07-12 11:35:00,67.3,48.0,29.93,West,270,8.0,22.0,50,0.00,,,0.00,Weather View 32 v70,2013-07-12 18:35:00,
2013-07-12 11:40:00,67.6,48.2,29.93,WNW,284,9.0,22.0,50,0.00,,,0.00,Weather View 32 v70,2013-07-12 18:40:00,
2013-07-12 11:46:00,68.3,49.4,29.93,WNW,285,7.0,22.0,51,0.00,,,0.00,Weather View 32 v70,2013-07-12 18:46:00,
2013-07-12 11:51:00,68.4,49.5,29.92,West,281,10.0,22.0,51,0.00,,,0.00,Weather View 32 v70,2013-07-12 18:51:00,
2013-07-12 11:56:00,68.8,49.3,29.92,West,259,10.0,22.0,50,0.00,,,0.00,Weather View 32 v70,2013-07-12 18:56:00,
2013-07-12 12:01:00,69.4,48.8,29.92,WSW,244,7.0,22.0,48,0.00,,,0.00,Weather View 32 v70,2013-07-12 19:01:00,
2013-07-12 12:07:00,69.9,48.7,29.93,WNW,291,9.0,23.0,47,0.00,,,0.00,Weather View 32 v70,2013-07-12 19:07:00,
2013-07-12 12:12:00,69.3,48.7,29.93,NW,319,11.0,23.0,48,0.00,,,0.00,Weather View 32 v70,2013-07-12 19:12:00,
2013-07-12 12:17:00,68.1,48.2,29.93,West,263,10.0,23.0,49,0.00,,,0.00,Weather View 32 v70,2013-07-12 19:17:00,
2013-07-12 12:22:00,68.3,48.9,29.92,West,280,6.0,23.0,50,0.00,,,0.00,Weather View 32 v70,2013-07-12 19:22:00,
2013-07-12 12:27:00,69.1,49.1,29.92,West,264,10.0,23.0,49,0.00,,,0.00,Weather View 32 v70,2013-07-12 19:27:00,
2013-07-12 12:33:00,69.9,49.3,29.92,WSW,257,12.0,23.0,48,0.00,,,0.00,Weather View 32 v70,2013-07-12 19:33:00,
2013-07-12 12:38:00,70.4,48.6,29.92,West,281,7.0,23.0,46,0.00,,,0.00,Weather View 32 v70,2013-07-12 19:38:00,
2013-07-12 12:43:00,71.1,48.6,29.92,West,278,13.0,23.0,45,0.00,,,0.00,Weather View 32 v70,2013-07-12 19:43:00,
2013-07-12 12:48:00,71.6,49.1,29.92,WNW,301,5.0,23.0,45,0.00,,,0.00,Weather View 32 v70,2013-07-12 19:48:00,
2013-07-12 12:53:00,71.8,47.4,29.92,West,262,8.0,23.0,42,0.00,,,0.00,Weather View 32 v70,2013-07-12 19:53:00,
2013-07-12 12:58:00,72.0,47.6,29.92,West,268,7.0,23.0,42,0.00,,,0.00,Weather View 32 v70,2013-07-12 19:58:00,
2013-07-12 13:03:00,72.5,47.4,29.93,WNW,296,5.0,23.0,41,0.00,,,0.00,Weather View 32 v70,2013-07-12 20:03:00,
2013-07-12 13:09:00,72.7,46.2,29.92,West,273,6.0,21.0,39,0.00,,,0.00,Weather View 32 v70,2013-07-12 20:09:00,
2013-07-12 13:14:00,73.0,45.8,29.93,WNW,288,6.0,23.0,38,0.00,,,0.00,Weather View 32 v70,2013-07-12 20:14:00,
2013-07-12 13:19:00,72.7,45.6,29.93,WNW,291,7.0,23.0,38,0.00,,,0.00,Weather View 32 v70,2013-07-12 20:19:00,
2013-07-12 13:24:00,72.7,47.6,29.93,WNW,292,4.0,23.0,41,0.00,,,0.00,Weather View 32 v70,2013-07-12 20:24:00,
2013-07-12 13:29:00,73.3,47.5,29.93,WNW,300,4.0,23.0,40,0.00,,,0.00,Weather View 32 v70,2013-07-12 20:29:00,
2013-07-12 13:34:00,73.5,45.6,29.93,WNW,282,5.0,23.0,37,0.00,,,0.00,Weather View 32 v70,2013-07-12 20:34:00,
2013-07-12 13:39:00,73.7,46.4,29.93,NW,319,3.0,23.0,38,0.00,,,0.00,Weather View 32 v70,2013-07-12 20:39:00,
2013-07-12 13:44:00,74.0,46.7,29.93,NW,308,8.0,23.0,38,0.00,,,0.00,Weather View 32 v70,2013-07-12 20:44:00,
2013-07-12 13:49:00,74.0,47.4,29.93,WNW,301,2.0,23.0,39,0.00,,,0.00,Weather View 32 v70,2013-07-12 20:49:00,
2013-07-12 13:54:00,74.6,44.3,29.93,WNW,294,8.0,23.0,34,0.00,,,0.00,Weather View 32 v70,2013-07-12 20:54:00,
2013-07-12 14:00:00,74.0,44.5,29.93,WNW,299,3.0,23.0,35,0.00,,,0.00,Weather View 32 v70,2013-07-12 21:00:00,
2013-07-12 14:05:00,74.7,45.9,29.93,WNW,300,3.0,23.0,36,0.00,,,0.00,Weather View 32 v70,2013-07-12 21:05:00,
2013-07-12 14:10:00,74.0,46.0,29.93,West,281,3.0,23.0,37,0.00,,,0.00,Weather View 32 v70,2013-07-12 21:10:00,
2013-07-12 14:15:00,72.7,44.9,29.93,West,276,5.0,18.0,37,0.00,,,0.00,Weather View 32 v70,2013-07-12 21:15:00,
2013-07-12 14:21:00,72.0,44.9,29.93,WNW,298,3.0,18.0,38,0.00,,,0.00,Weather View 32 v70,2013-07-12 21:21:00,
2013-07-12 14:26:00,72.0,45.6,29.93,WNW,293,5.0,18.0,39,0.00,,,0.00,Weather View 32 v70,2013-07-12 21:26:00,
2013-07-12 14:31:00,71.8,46.8,29.93,WNW,290,5.0,18.0,41,0.00,,,0.00,Weather View 32 v70,2013-07-12 21:31:00,
2013-07-12 14:36:00,71.6,47.2,29.92,WNW,288,4.0,18.0,42,0.00,,,0.00,Weather View 32 v70,2013-07-12 21:36:00,
2013-07-12 14:41:00,71.5,47.1,29.92,West,273,8.0,18.0,42,0.00,,,0.00,Weather View 32 v70,2013-07-12 21:41:00,
2013-07-12 14:46:00,71.6,47.9,29.92,WNW,293,10.0,18.0,43,0.00,,,0.00,Weather View 32 v70,2013-07-12 21:46:00,
2013-07-12 14:52:00,71.8,48.0,29.92,WNW,290,6.0,18.0,43,0.00,,,0.00,Weather View 32 v70,2013-07-12 21:52:00,
2013-07-12 14:57:00,72.0,48.2,29.93,WNW,290,3.0,18.0,43,0.00,,,0.00,Weather View 32 v70,2013-07-12 21:57:00,
2013-07-12 15:02:00,72.0,47.6,29.93,West,272,3.0,18.0,42,0.00,,,0.00,Weather View 32 v70,2013-07-12 22:02:00,
2013-07-12 15:07:00,72.1,47.0,29.93,WNW,300,3.0,18.0,41,0.00,,,0.00,Weather View 32 v70,2013-07-12 22:07:00,
2013-07-12 15:12:00,72.7,46.9,29.92,NW,308,8.0,18.0,40,0.00,,,0.00,Weather View 32 v70,2013-07-12 22:12:00,
2013-07-12 15:18:00,72.5,46.7,29.92,West,268,6.0,18.0,40,0.00,,,0.00,Weather View 32 v70,2013-07-12 22:18:00,
2013-07-12 15:23:00,72.1,47.7,29.93,West,269,17.0,18.0,42,0.00,,,0.00,Weather View 32 v70,2013-07-12 22:23:00,
2013-07-12 15:28:00,72.0,47.6,29.92,West,263,6.0,18.0,42,0.00,,,0.00,Weather View 32 v70,2013-07-12 22:28:00,
2013-07-12 15:34:00,72.1,48.3,29.92,West,267,4.0,20.0,43,0.00,,,0.00,Weather View 32 v70,2013-07-12 22:34:00,
2013-07-12 15:39:00,72.0,48.2,29.92,WNW,285,5.0,20.0,43,0.00,,,0.00,Weather View 32 v70,2013-07-12 22:39:00,
2013-07-12 15:44:00,72.3,47.9,29.92,NW,312,2.0,20.0,42,0.00,,,0.00,Weather View 32 v70,2013-07-12 22:44:00,
2013-07-12 15:49:00,72.5,48.0,29.92,WNW,298,3.0,20.0,42,0.00,,,0.00,Weather View 32 v70,2013-07-12 22:49:00,
2013-07-12 15:54:00,72.7,48.2,29.92,WNW,282,3.0,20.0,42,0.00,,,0.00,Weather View 32 v70,2013-07-12 22:54:00,
2013-07-12 15:59:00,72.5,47.4,29.93,West,277,0.0,20.0,41,0.00,,,0.00,Weather View 32 v70,2013-07-12 22:59:00,
2013-07-12 16:04:00,72.1,46.4,29.93,West,260,2.0,20.0,40,0.00,,,0.00,Weather View 32 v70,2013-07-12 23:04:00,
2013-07-12 16:09:00,71.6,45.9,29.93,West,275,10.0,20.0,40,0.00,,,0.00,Weather View 32 v70,2013-07-12 23:09:00,
2013-07-12 16:14:00,71.6,46.6,29.93,West,277,3.0,20.0,41,0.00,,,0.00,Weather View 32 v70,2013-07-12 23:14:00,
2013-07-12 16:20:00,71.5,47.1,29.93,West,275,3.0,20.0,42,0.00,,,0.00,Weather View 32 v70,2013-07-12 23:20:00,
2013-07-12 16:25:00,71.3,47.0,29.93,WNW,284,5.0,20.0,42,0.00,,,0.00,Weather View 32 v70,2013-07-12 23:25:00,
2013-07-12 16:30:00,71.1,47.4,29.93,West,271,6.0,20.0,43,0.00,,,0.00,Weather View 32 v70,2013-07-12 23:30:00,
2013-07-12 16:35:00,70.9,47.2,29.93,West,267,9.0,20.0,43,0.00,,,0.00,Weather View 32 v70,2013-07-12 23:35:00,
2013-07-12 16:40:00,70.9,47.2,29.93,WSW,251,12.0,20.0,43,0.00,,,0.00,Weather View 32 v70,2013-07-12 23:40:00,
2013-07-12 16:46:00,70.8,49.5,29.93,WNW,302,8.0,20.0,47,0.00,,,0.00,Weather View 32 v70,2013-07-12 23:46:00,
2013-07-12 16:51:00,71.5,47.8,29.93,West,262,8.0,20.0,43,0.00,,,0.00,Weather View 32 v70,2013-07-12 23:51:00,
2013-07-12 16:56:00,71.6,47.2,29.93,West,269,4.0,21.0,42,0.00,,,0.00,Weather View 32 v70,2013-07-12 23:56:00,
2013-07-12 17:01:00,71.5,47.8,29.93,West,261,6.0,21.0,43,0.00,,,0.00,Weather View 32 v70,2013-07-13 00:01:00,
2013-07-12 17:06:00,71.6,47.2,29.93,WSW,252,7.0,21.0,42,0.00,,,0.00,Weather View 32 v70,2013-07-13 00:06:00,
2013-07-12 17:11:00,72.5,46.7,29.92,WNW,290,6.0,21.0,40,0.00,,,0.00,Weather View 32 v70,2013-07-13 00:11:00,
2013-07-12 17:16:00,73.0,47.8,29.92,West,268,8.0,21.0,41,0.00,,,0.00,Weather View 32 v70,2013-07-13 00:16:00,
2013-07-12 17:21:00,73.2,47.4,29.92,West,267,3.0,21.0,40,0.00,,,0.00,Weather View 32 v70,2013-07-13 00:21:00,
2013-07-12 17:27:00,73.3,46.8,29.92,West,263,7.0,21.0,39,0.00,,,0.00,Weather View 32 v70,2013-07-13 00:27:00,
2013-07-12 17:32:00,73.3,46.8,29.92,SW,233,4.0,23.0,39,0.00,,,0.00,Weather View 32 v70,2013-07-13 00:32:00,
2013-07-12 17:37:00,73.3,46.8,29.92,West,273,7.0,23.0,39,0.00,,,0.00,Weather View 32 v70,2013-07-13 00:37:00,
2013-07-12 17:42:00,73.3,46.8,29.93,WNW,296,7.0,23.0,39,0.00,,,0.00,Weather View 32 v70,2013-07-13 00:42:00,
2013-07-12 17:47:00,73.5,47.0,29.93,WSW,239,9.0,23.0,39,0.00,,,0.00,Weather View 32 v70,2013-07-13 00:47:00,
2013-07-12 17:52:00,72.8,46.3,29.93,WNW,291,5.0,23.0,39,0.00,,,0.00,Weather View 32 v70,2013-07-13 00:52:00,
2013-07-12 17:57:00,72.7,46.9,29.93,WNW,288,3.0,23.0,40,0.00,,,0.00,Weather View 32 v70,2013-07-13 00:57:00,
2013-07-12 18:02:00,72.8,47.0,29.93,WSW,252,7.0,23.0,40,0.00,,,0.00,Weather View 32 v70,2013-07-13 01:02:00,
2013-07-12 18:07:00,72.3,46.6,29.93,SW,225,6.0,23.0,40,0.00,,,0.00,Weather View 32 v70,2013-07-13 01:07:00,
2013-07-12 18:13:00,71.8,46.1,29.93,West,265,7.0,23.0,40,0.00,,,0.00,Weather View 32 v70,2013-07-13 01:13:00,
2013-07-12 18:18:00,71.6,45.3,29.94,WSW,238,11.0,23.0,39,0.00,,,0.00,Weather View 32 v70,2013-07-13 01:18:00,
2013-07-12 18:23:00,71.8,46.1,29.94,WNW,294,13.0,23.0,40,0.00,,,0.00,Weather View 32 v70,2013-07-13 01:23:00,
2013-07-12 18:28:00,72.0,46.3,29.94,WSW,242,2.0,23.0,40,0.00,,,0.00,Weather View 32 v70,2013-07-13 01:28:00,
2013-07-12 18:33:00,71.6,45.9,29.93,WNW,298,8.0,21.0,40,0.00,,,0.00,Weather View 32 v70,2013-07-13 01:33:00,
2013-07-12 18:38:00,71.3,45.0,29.94,West,259,1.0,21.0,39,0.00,,,0.00,Weather View 32 v70,2013-07-13 01:38:00,
2013-07-12 18:43:00,71.3,45.0,29.94,West,277,4.0,21.0,39,0.00,,,0.00,Weather View 32 v70,2013-07-13 01:43:00,
2013-07-12 18:49:00,71.1,44.8,29.94,West,273,10.0,21.0,39,0.00,,,0.00,Weather View 32 v70,2013-07-13 01:49:00,
2013-07-12 18:54:00,71.1,44.8,29.94,WNW,301,6.0,21.0,39,0.00,,,0.00,Weather View 32 v70,2013-07-13 01:54:00,
2013-07-12 18:59:00,70.9,44.6,29.94,WSW,247,8.0,21.0,39,0.00,,,0.00,Weather View 32 v70,2013-07-13 01:59:00,
2013-07-12 19:04:00,70.8,44.5,29.94,WNW,300,7.0,21.0,39,0.00,,,0.00,Weather View 32 v70,2013-07-13 02:04:00,
2013-07-12 19:10:00,70.4,44.2,29.94,SW,226,7.0,21.0,39,0.00,,,0.00,Weather View 32 v70,2013-07-13 02:10:00,
2013-07-12 19:15:00,70.4,44.2,29.94,WSW,254,5.0,20.0,39,0.00,,,0.00,Weather View 32 v70,2013-07-13 02:15:00,
2013-07-12 19:20:00,70.4,44.2,29.95,SSW,197,7.0,20.0,39,0.00,,,0.00,Weather View 32 v70,2013-07-13 02:20:00,
2013-07-12 19:25:00,70.3,44.1,29.95,West,267,5.0,20.0,39,0.00,,,0.00,Weather View 32 v70,2013-07-13 02:25:00,
2013-07-12 19:30:00,70.1,43.9,29.95,West,271,6.0,20.0,39,0.00,,,0.00,Weather View 32 v70,2013-07-13 02:30:00,
2013-07-12 19:35:00,70.1,43.9,29.95,West,271,7.0,20.0,39,0.00,,,0.00,Weather View 32 v70,2013-07-13 02:35:00,
2013-07-12 19:41:00,69.9,44.4,29.95,West,271,5.0,20.0,40,0.00,,,0.00,Weather View 32 v70,2013-07-13 02:41:00,
2013-07-12 19:46:00,69.8,44.3,29.95,WSW,244,8.0,20.0,40,0.00,,,0.00,Weather View 32 v70,2013-07-13 02:46:00,
2013-07-12 19:51:00,69.6,44.8,29.96,SW,235,7.0,20.0,41,0.00,,,0.00,Weather View 32 v70,2013-07-13 02:51:00,
2013-07-12 19:57:00,69.4,44.6,29.96,WNW,284,6.0,20.0,41,0.00,,,0.00,Weather View 32 v70,2013-07-13 02:57:00,
2013-07-12 20:02:00,69.1,44.3,29.96,West,273,4.0,20.0,41,0.00,,,0.00,Weather View 32 v70,2013-07-13 03:02:00,
2013-07-12 20:07:00,69.1,45.0,29.96,WNW,289,3.0,20.0,42,0.00,,,0.00,Weather View 32 v70,2013-07-13 03:07:00,
2013-07-12 20:12:00,68.9,44.8,29.97,West,260,2.0,20.0,42,0.00,,,0.00,Weather View 32 v70,2013-07-13 03:12:00,
2013-07-12 20:17:00,68.8,44.7,29.97,West,259,10.0,20.0,42,0.00,,,0.00,Weather View 32 v70,2013-07-13 03:17:00,
2013-07-12 20:22:00,68.6,45.2,29.97,West,263,4.0,18.0,43,0.00,,,0.00,Weather View 32 v70,2013-07-13 03:22:00,
2013-07-12 20:27:00,68.4,45.0,29.98,West,268,1.0,18.0,43,0.00,,,0.00,Weather View 32 v70,2013-07-13 03:27:00,
2013-07-12 20:32:00,68.1,45.3,29.98,West,281,0.0,18.0,44,0.00,,,0.00,Weather View 32 v70,2013-07-13 03:32:00,
2013-07-12 20:38:00,67.9,45.7,29.98,West,279,0.0,18.0,45,0.00,,,0.00,Weather View 32 v70,2013-07-13 03:38:00,
2013-07-12 20:43:00,67.6,45.4,29.98,West,281,2.0,18.0,45,0.00,,,0.00,Weather View 32 v70,2013-07-13 03:43:00,
2013-07-12 20:49:00,67.6,45.4,29.98,West,275,4.0,18.0,45,0.00,,,0.00,Weather View 32 v70,2013-07-13 03:49:00,
2013-07-12 20:54:00,67.3,45.8,29.98,WNW,288,3.0,17.0,46,0.00,,,0.00,Weather View 32 v70,2013-07-13 03:54:00,
2013-07-12 20:59:00,67.3,45.8,29.98,West,268,3.0,17.0,46,0.00,,,0.00,Weather View 32 v70,2013-07-13 03:59:00,
2013-07-12 21:01:00,67.1,45.6,29.98,West,264,2.0,17.0,46,0.00,,,0.00,Weather View 32 v70,2013-07-13 04:01:00,
2013-07-12 21:02:00,67.1,45.6,29.98,West,263,2.0,17.0,46,0.00,,,0.00,Weather View 32 v70,2013-07-13 04:02:00,
2013-07-12 21:07:00,66.9,46.0,29.99,WSW,252,1.0,17.0,47,0.00,,,0.00,Weather View 32 v70,2013-07-13 04:07:00,
2013-07-12 21:12:00,66.8,45.9,29.99,West,269,4.0,13.0,47,0.00,,,0.00,Weather View 32 v70,2013-07-13 04:12:00,
2013-07-12 21:17:00,66.6,46.2,29.99,WSW,240,3.0,13.0,48,0.00,,,0.00,Weather View 32 v70,2013-07-13 04:17:00,
2013-07-12 21:22:00,66.4,46.6,29.99,West,278,10.0,12.0,49,0.00,,,0.00,Weather View 32 v70,2013-07-13 04:22:00,
2013-07-12 21:27:00,66.4,46.6,29.99,West,265,3.0,12.0,49,0.00,,,0.00,Weather View 32 v70,2013-07-13 04:27:00,
2013-07-12 21:32:00,66.3,47.1,29.99,West,265,2.0,12.0,50,0.00,,,0.00,Weather View 32 v70,2013-07-13 04:32:00,
2013-07-12 21:37:00,66.1,46.9,29.99,WSW,253,3.0,12.0,50,0.00,,,0.00,Weather View 32 v70,2013-07-13 04:37:00,
2013-07-12 21:42:00,66.0,46.8,29.99,West,271,1.0,12.0,50,0.00,,,0.00,Weather View 32 v70,2013-07-13 04:42:00,
2013-07-12 21:47:00,66.0,47.3,30.00,West,274,2.0,12.0,51,0.00,,,0.00,Weather View 32 v70,2013-07-13 04:47:00,
2013-07-12 21:52:00,65.8,47.1,30.00,West,269,6.0,12.0,51,0.00,,,0.00,Weather View 32 v70,2013-07-13 04:52:00,
2013-07-12 21:57:00,65.8,47.6,30.00,West,275,2.0,12.0,52,0.00,,,0.00,Weather View 32 v70,2013-07-13 04:57:00,
2013-07-12 22:02:00,65.6,47.5,30.01,West,277,4.0,12.0,52,0.00,,,0.00,Weather View 32 v70,2013-07-13 05:02:00,
2013-07-12 22:07:00,65.5,47.9,30.01,WSW,257,4.0,12.0,53,0.00,,,0.00,Weather View 32 v70,2013-07-13 05:07:00,
2013-07-12 22:12:00,65.3,48.2,30.01,West,277,1.0,12.0,54,0.00,,,0.00,Weather View 32 v70,2013-07-13 05:12:00,
2013-07-12 22:17:00,65.2,48.1,30.01,WSW,248,2.0,12.0,54,0.00,,,0.00,Weather View 32 v70,2013-07-13 05:17:00,
2013-07-12 22:22:00,65.0,47.9,30.01,West,261,1.0,12.0,54,0.00,,,0.00,Weather View 32 v70,2013-07-13 05:22:00,
2013-07-12 22:27:00,64.7,48.1,30.01,West,259,0.0,12.0,55,0.00,,,0.00,Weather View 32 v70,2013-07-13 05:27:00,
2013-07-12 22:32:00,64.5,48.4,30.01,West,259,1.0,12.0,56,0.00,,,0.00,Weather View 32 v70,2013-07-13 05:32:00,
2013-07-12 22:37:00,64.2,48.6,30.01,West,279,2.0,12.0,57,0.00,,,0.00,Weather View 32 v70,2013-07-13 05:37:00,
2013-07-12 22:42:00,64.2,49.1,30.01,West,274,1.0,12.0,58,0.00,,,0.00,Weather View 32 v70,2013-07-13 05:42:00,
2013-07-12 22:47:00,64.0,48.9,30.02,West,271,4.0,12.0,58,0.00,,,0.00,Weather View 32 v70,2013-07-13 05:47:00,
2013-07-12 22:52:00,64.0,49.3,30.02,West,262,0.0,12.0,59,0.00,,,0.00,Weather View 32 v70,2013-07-13 05:52:00,
2013-07-12 22:57:00,63.7,49.5,30.02,West,273,3.0,10.0,60,0.00,,,0.00,Weather View 32 v70,2013-07-13 05:57:00,
2013-07-12 23:02:00,63.5,49.3,30.02,West,267,5.0,10.0,60,0.00,,,0.00,Weather View 32 v70,2013-07-13 06:02:00,
2013-07-12 23:07:00,63.5,49.8,30.02,West,277,1.0,10.0,61,0.00,,,0.00,Weather View 32 v70,2013-07-13 06:07:00,
2013-07-12 23:12:00,63.4,49.7,30.02,West,265,10.0,10.0,61,0.00,,,0.00,Weather View 32 v70,2013-07-13 06:12:00,
2013-07-12 23:17:00,63.4,49.7,30.02,West,281,4.0,10.0,61,0.00,,,0.00,Weather View 32 v70,2013-07-13 06:17:00,
2013-07-12 23:22:00,63.2,49.9,30.02,West,272,2.0,10.0,62,0.00,,,0.00,Weather View 32 v70,2013-07-13 06:22:00,
2013-07-12 23:27:00,63.1,49.8,30.02,West,272,4.0,11.0,62,0.00,,,0.00,Weather View 32 v70,2013-07-13 06:27:00,
2013-07-12 23:32:00,63.1,50.3,30.02,WSW,248,3.0,12.0,63,0.00,,,0.00,Weather View 32 v70,2013-07-13 06:32:00,
2013-07-12 23:37:00,62.9,50.1,30.02,West,266,4.0,12.0,63,0.00,,,0.00,Weather View 32 v70,2013-07-13 06:37:00,
2013-07-12 23:42:00,62.7,50.3,30.02,NW,309,3.0,12.0,64,0.00,,,0.00,Weather View 32 v70,2013-07-13 06:42:00,
2013-07-12 23:47:00,62.6,50.2,30.03,West,260,8.0,12.0,64,0.00,,,0.00,Weather View 32 v70,2013-07-13 06:47:00,
2013-07-12 23:52:00,62.4,50.0,30.03,West,259,0.0,12.0,64,0.00,,,0.00,Weather View 32 v70,2013-07-13 06:52:00,
2013-07-12 23:57:00,62.3,50.4,30.03,West,273,3.0,12.0,65,0.00,,,0.00,Weather View 32 v70,2013-07-13 06:57:00,